This is the latest recevied weather packets stored in our database for station/object KI7MOQ. If no packets are shown the sender has not sent any weather packets the latest 10 day(s).
| Time | Temp. | Humidity | Pressure | Rain* | Wind** | Luminosity | Snow |
|---|---|---|---|---|---|---|---|
| 1778001627 | 13.89° C | 83% | 1019.1 hPa | 0 mm | - | 82 W/m² | - |
| 1778001322 | 13.89° C | 83% | 1019 hPa | 0 mm | - | 78 W/m² | - |
| 1778001020 | 13.89° C | 83% | 1018.9 hPa | 0 mm | - | 69 W/m² | - |
| 1778000716 | 13.89° C | 84% | 1019 hPa | 0 mm | - | 62 W/m² | - |
| 1778000412 | 13.89° C | 84% | 1018.9 hPa | 0 mm | - | 58 W/m² | - |
| 1778000108 | 13.89° C | 85% | 1018.8 hPa | 0 mm | - | 59 W/m² | - |
| 1777999804 | 13.89° C | 85% | 1018.9 hPa | 0 mm | - | 63 W/m² | - |
| 1777999500 | 13.33° C | 85% | 1018.8 hPa | 0 mm | - | 62 W/m² | - |
| 1777999198 | 13.89° C | 85% | 1018.6 hPa | 0 mm | - | 61 W/m² | - |
| 1777998896 | 13.33° C | 86% | 1018.7 hPa | 0 mm | - | 65 W/m² | - |
| 1777998596 | 13.33° C | 86% | 1018.8 hPa | 0 mm | - | 54 W/m² | - |
| 1777998291 | 13.33° C | 87% | 1018.7 hPa | 0 mm | - | 61 W/m² | - |
| 1777997988 | 13.33° C | 87% | 1018.8 hPa | 0 mm | - | 57 W/m² | - |
| 1777997684 | 13.33° C | 87% | 1018.7 hPa | 0 mm | - | 52 W/m² | - |
| 1777997382 | 12.78° C | 88% | 1018.6 hPa | 0 mm | - | 42 W/m² | - |
| 1777997080 | 13.33° C | 88% | 1018.8 hPa | 0 mm | - | 35 W/m² | - |
| 1777996776 | 13.33° C | 87% | 1018.7 hPa | 0 mm | - | 35 W/m² | - |
| 1777996473 | 13.33° C | 87% | 1018.7 hPa | 0 mm | - | 34 W/m² | - |
| 1777996169 | 13.33° C | 87% | 1018.7 hPa | 0 mm | - | 36 W/m² | - |
| 1777995861 | 12.78° C | 87% | 1018.5 hPa | 0 mm | - | 41 W/m² | - |
| 1777995556 | 12.78° C | 87% | 1018.7 hPa | 0 mm | - | 44 W/m² | - |
| 1777995253 | 12.78° C | 87% | 1018.6 hPa | 0 mm | - | 34 W/m² | - |
| 1777994950 | 12.78° C | 88% | 1018.6 hPa | 0 mm | - | 31 W/m² | - |
| 1777994648 | 12.78° C | 89% | 1018.5 hPa | 0 mm | - | 39 W/m² | - |
| 1777994347 | 12.78° C | 89% | 1018.5 hPa | 0 mm | - | 28 W/m² | - |
* Rain latest hour (hover to see other rain measurements)
** Current wind speed in m/s (hover to see current wind gust speed)